Weather in Pervomajskoye

Russia / Republic of Crimea     45˚42′57″N   33˚51′27″E
temp.,
°C
wind,
m/s
gust,
m/s
humid.,
%
clouds,
%
prec.,
mm/h
press.,
hPa
HPBL,
m
2 december, wed
wed200:00+7˚nne248593 0.1 1021143
03:00+7˚ne228697 0.1 102184
06:00+7˚ese2287100 0.0 102167
09:00+5˚se348998 0.0 1022136
12:00+8˚ese237392 0.0 1022345
15:00+9˚sse236795 0.0 1022757
18:00+8˚se127389 0.0 102350
21:00+6˚ese339171 0.1 102369
3 december, thu
thu300:00+5˚sse22930 0.0 102430
03:00+4˚s129222 0.0 102422
06:00+4˚ssw1190100 0.0 102422
09:00+4˚se1189100 0.0 102522
12:00+9˚ese22650 0.0 1024335
15:00+11˚e33560 0.0 1023526
18:00+7˚e46860 0.0 1023142
21:00+5˚e48960 0.0 1023199
4 december, fri
fri400:00+4˚e48969 0.0 1023193
03:00+4˚ene48956 0.0 1022167
06:00+5˚ene49950 0.0 1022196
09:00+5˚e510950 0.0 1022278
12:00+9˚e69772 0.0 1021431
15:00+9˚ene69751 0.0 1020448
18:00+6˚e611920 0.0 1020324
21:00+6˚e510926 0.0 1021282
5 december, sat
sat500:00+6˚e511915 0.0 1021262
03:00+6˚e6119114 0.0 1022287
06:00+5˚e6129222 0.0 1022328
09:00+6˚e6139217 0.0 1023377
12:00+9˚e8127222 0.0 1023491
15:00+9˚e8127138 0.0 1023505
18:00+5˚e813870 0.0 1024451
21:00+5˚e713878 0.0 1025450
6 december, sun
sun600:00+4˚e612914 0.0 1025427
03:00+4˚e6129019 0.0 1025433
06:00+5˚e7118173 0.0 1025634
09:00+4˚e8118186 0.0 1025650
12:00+5˚e81276100 0.0 1025658
15:00+5˚e9127686 0.0 1024652
18:00+4˚e91477100 0.0 1024681
21:00+4˚e8157887 0.0 1024655